• In Deutschland
  • Länderverzeichnis
  • Für 7 Tage
  • Wassertemperatur
  • Satellitenkarten
  • Wetterkarte
  • Widgets
  • user-avatar
    Anmelden

    Stündliche Wetter Katerini

    Heute, 16 August, Donnerstag

    Zeit Temperatur Niederschläge Wind Luftdruck Luftfeuchtigkeit
    00:00 +26°C° 0,1 mm 2 m/S 756 mmHg 69%
    01:00 +25°C° 0,1 mm 2 m/S 756 mmHg 71%
    02:00 +25°C° 0,1 mm 2 m/S 757 mmHg 72%
    03:00 +25°C° 0 mm 2 m/S 756 mmHg 72%
    04:00 +24°C° 0 mm 2 m/S 756 mmHg 73%
    05:00 +24°C° 0 mm 2 m/S 756 mmHg 73%
    06:00 +25°C° 0,1 mm 2 m/S 756 mmHg 69%
    07:00 +26°C° 0,1 mm 2 m/S 756 mmHg 64%
    08:00 +28°C° 0,1 mm 2 m/S 756 mmHg 60%
    09:00 +29°C° 0,5 mm 2 m/S 756 mmHg 54%
    10:00 +31°C° 0,5 mm 2 m/S 756 mmHg 49%
    11:00 +32°C° 0,5 mm 2 m/S 756 mmHg 43%
    12:00 +34°C° 0,1 mm 2 m/S 756 mmHg 40%
    13:00 +34°C° 0,1 mm 2 m/S 756 mmHg 37%
    14:00 +35°C° 0,1 mm 2 m/S 756 mmHg 34%
    15:00 +34°C° 0 mm 2 m/S 755 mmHg 35%
    16:00 +34°C° 0 mm 2 m/S 755 mmHg 35%
    17:00 +34°C° 0 mm 2 m/S 755 mmHg 36%
    18:00 +31°C° 0,2 mm 2 m/S 755 mmHg 39%
    19:00 +30°C° 0,2 mm 2 m/S 755 mmHg 43%
    20:00 +28°C° 0,2 mm 2 m/S 755 mmHg 46%
    21:00 +27°C° 0,1 mm 2 m/S 756 mmHg 49%
    22:00 +27°C° 0,1 mm 2 m/S 756 mmHg 52%
    23:00 +26°C° 0,1 mm 3 m/S 756 mmHg 55%

    Morgen, 17 August, Freitag

    Zeit Temperatur Niederschläge Wind Luftdruck Luftfeuchtigkeit
    00:00 +26°C° 0 mm 3 m/S 756 mmHg 57%
    01:00 +26°C° 0 mm 3 m/S 756 mmHg 60%
    02:00 +25°C° 0 mm 3 m/S 756 mmHg 62%
    03:00 +25°C° 0 mm 3 m/S 756 mmHg 63%
    04:00 +25°C° 0 mm 3 m/S 756 mmHg 63%
    05:00 +24°C° 0 mm 3 m/S 756 mmHg 64%
    06:00 +26°C° 0 mm 3 m/S 756 mmHg 60%
    07:00 +27°C° 0 mm 3 m/S 756 mmHg 56%
    08:00 +28°C° 0 mm 2 m/S 756 mmHg 52%
    09:00 +30°C° 0 mm 2 m/S 756 mmHg 47%
    10:00 +31°C° 0 mm 2 m/S 756 mmHg 42%
    11:00 +34°C° 0 mm 2 m/S 756 mmHg 37%
    12:00 +35°C° 0 mm 2 m/S 756 mmHg 35%
    13:00 +36°C° 0 mm 2 m/S 756 mmHg 33%
    14:00 +36°C° 0 mm 2 m/S 756 mmHg 31%
    15:00 +36°C° 0 mm 2 m/S 755 mmHg 32%
    16:00 +35°C° 0 mm 2 m/S 755 mmHg 33%
    17:00 +35°C° 0 mm 2 m/S 755 mmHg 34%
    18:00 +32°C° 0 mm 2 m/S 755 mmHg 37%
    19:00 +31°C° 0 mm 2 m/S 755 mmHg 40%
    20:00 +29°C° 0 mm 2 m/S 756 mmHg 43%
    21:00 +29°C° 0 mm 2 m/S 756 mmHg 44%
    22:00 +28°C° 0 mm 2 m/S 756 mmHg 45%
    23:00 +28°C° 0 mm 1 m/S 756 mmHg 46%

    übermorgen, 18 August, Samstag

    Zeit Temperatur Niederschläge Wind Luftdruck Luftfeuchtigkeit
    00:00 +28°C° 0 mm 2 m/S 756 mmHg 47%
    01:00 +27°C° 0 mm 2 m/S 756 mmHg 48%
    02:00 +27°C° 0 mm 2 m/S 756 mmHg 49%
    03:00 +26°C° 0 mm 2 m/S 756 mmHg 51%
    04:00 +26°C° 0 mm 2 m/S 756 mmHg 52%
    05:00 +26°C° 0 mm 2 m/S 756 mmHg 54%
    06:00 +27°C° 0 mm 2 m/S 756 mmHg 51%
    07:00 +28°C° 0 mm 2 m/S 757 mmHg 48%
    08:00 +29°C° 0 mm 2 m/S 757 mmHg 45%
    09:00 +31°C° 0 mm 1 m/S 757 mmHg 41%
    10:00 +33°C° 0 mm 1 m/S 757 mmHg 37%
    11:00 +34°C° 0 mm 1 m/S 757 mmHg 33%
    12:00 +36°C° 0 mm 2 m/S 757 mmHg 32%
    13:00 +36°C° 0 mm 2 m/S 756 mmHg 32%
    14:00 +37°C° 0 mm 2 m/S 756 mmHg 31%
    15:00 +36°C° 0,1 mm 2 m/S 756 mmHg 33%
    16:00 +36°C° 0,1 mm 2 m/S 756 mmHg 34%
    17:00 +35°C° 0,1 mm 3 m/S 756 mmHg 36%
    18:00 +32°C° 0,1 mm 2 m/S 756 mmHg 40%
    19:00 +31°C° 0,1 mm 2 m/S 756 mmHg 45%
    20:00 +29°C° 0,1 mm 1 m/S 756 mmHg 49%
    21:00 +29°C° 0,3 mm 2 m/S 757 mmHg 51%
    22:00 +28°C° 0,3 mm 2 m/S 757 mmHg 54%
    23:00 +27°C° 0,3 mm 3 m/S 757 mmHg 56%

    19 August, Sonntag

    Zeit Temperatur Niederschläge Wind Luftdruck Luftfeuchtigkeit
    00:00 +27°C° 0,2 mm 3 m/S 757 mmHg 58%
    01:00 +26°C° 0,2 mm 3 m/S 757 mmHg 60%
    02:00 +26°C° 0,2 mm 3 m/S 757 mmHg 62%
    03:00 +26°C° 0 mm 3 m/S 757 mmHg 62%
    04:00 +25°C° 0 mm 3 m/S 757 mmHg 62%
    05:00 +25°C° 0 mm 3 m/S 757 mmHg 63%
    06:00 +26°C° 0 mm 3 m/S 757 mmHg 58%
    07:00 +28°C° 0 mm 3 m/S 757 mmHg 54%
    08:00 +29°C° 0 mm 3 m/S 758 mmHg 50%
    09:00 +31°C° 0 mm 3 m/S 758 mmHg 44%
    10:00 +33°C° 0 mm 3 m/S 758 mmHg 39%
    11:00 +35°C° 0 mm 3 m/S 758 mmHg 33%
    12:00 +36°C° 0 mm 3 m/S 757 mmHg 31%
    13:00 +36°C° 0 mm 3 m/S 757 mmHg 29%
    14:00 +37°C° 0 mm 3 m/S 757 mmHg 27%
    15:00 +36°C° 0 mm 3 m/S 756 mmHg 29%
    16:00 +36°C° 0 mm 3 m/S 756 mmHg 30%
    17:00 +35°C° 0 mm 3 m/S 756 mmHg 31%
    18:00 +34°C° 0 mm 3 m/S 756 mmHg 34%
    19:00 +31°C° 0 mm 2 m/S 756 mmHg 36%
    20:00 +30°C° 0 mm 2 m/S 757 mmHg 38%
    21:00 +29°C° 0 mm 2 m/S 757 mmHg 39%
    22:00 +29°C° 0 mm 2 m/S 757 mmHg 39%
    23:00 +29°C° 0 mm 2 m/S 758 mmHg 39%

    20 August, Montag

    Zeit Temperatur Niederschläge Wind Luftdruck Luftfeuchtigkeit
    00:00 +28°C° 0 mm 2 m/S 757 mmHg 41%
    01:00 +28°C° 0 mm 2 m/S 757 mmHg 42%
    02:00 +27°C° 0 mm 2 m/S 757 mmHg 43%
    03:00 +27°C° 0 mm 2 m/S 757 mmHg 44%
    04:00 +26°C° 0 mm 2 m/S 757 mmHg 45%
    05:00 +26°C° 0 mm 2 m/S 757 mmHg 46%
    06:00 +27°C° 0 mm 2 m/S 758 mmHg 44%
    07:00 +28°C° 0 mm 2 m/S 758 mmHg 43%
    08:00 +29°C° 0 mm 2 m/S 758 mmHg 41%
    09:00 +31°C° 0 mm 2 m/S 758 mmHg 37%
    10:00 +33°C° 0 mm 3 m/S 758 mmHg 34%
    11:00 +35°C° 0 mm 3 m/S 758 mmHg 30%
    12:00 +35°C° 0 mm 3 m/S 757 mmHg 30%
    13:00 +36°C° 0 mm 3 m/S 757 mmHg 29%
    14:00 +36°C° 0 mm 3 m/S 757 mmHg 28%
    15:00 +36°C° 0 mm 3 m/S 757 mmHg 30%
    16:00 +35°C° 0 mm 3 m/S 757 mmHg 31%
    17:00 +35°C° 0 mm 3 m/S 757 mmHg 32%
    18:00 +32°C° 0 mm 2 m/S 757 mmHg 35%
    19:00 +31°C° 0 mm 2 m/S 757 mmHg 37%
    20:00 +30°C° 0 mm 1 m/S 757 mmHg 40%
    21:00 +29°C° 0 mm 1 m/S 758 mmHg 40%
    22:00 +29°C° 0 mm 1 m/S 758 mmHg 41%
    23:00 +29°C° 0 mm 1 m/S 758 mmHg 41%

    21 August, Dienstag

    Zeit Temperatur Niederschläge Wind Luftdruck Luftfeuchtigkeit
    00:00 +28°C° 0 mm 1 m/S 758 mmHg 43%
    01:00 +28°C° 0 mm 1 m/S 758 mmHg 44%
    02:00 +27°C° 0 mm 1 m/S 758 mmHg 46%
    03:00 +27°C° 0 mm 1 m/S 758 mmHg 48%
    04:00 +26°C° 0 mm 1 m/S 758 mmHg 49%
    05:00 +26°C° 0 mm 1 m/S 758 mmHg 51%
    06:00 +27°C° 0 mm 1 m/S 758 mmHg 49%
    07:00 +28°C° 0 mm 2 m/S 759 mmHg 48%
    08:00 +29°C° 0 mm 2 m/S 759 mmHg 46%
    09:00 +30°C° 0 mm 2 m/S 759 mmHg 43%
    10:00 +32°C° 0 mm 2 m/S 759 mmHg 40%
    11:00 +34°C° 0 mm 2 m/S 758 mmHg 36%
    12:00 +35°C° 0 mm 2 m/S 758 mmHg 35%
    13:00 +35°C° 0 mm 2 m/S 758 mmHg 34%
    14:00 +36°C° 0 mm 3 m/S 757 mmHg 33%
    15:00 +35°C° 0 mm 3 m/S 757 mmHg 34%
    16:00 +35°C° 0 mm 3 m/S 757 mmHg 35%
    17:00 +34°C° 0 mm 3 m/S 757 mmHg 36%
    18:00 +32°C° 0 mm 2 m/S 757 mmHg 39%
    19:00 +30°C° 0 mm 2 m/S 757 mmHg 43%
    20:00 +28°C° 0 mm 2 m/S 757 mmHg 46%
    21:00 +28°C° 0 mm 2 m/S 758 mmHg 47%
    22:00 +27°C° 0 mm 1 m/S 758 mmHg 47%
    23:00 +27°C° 0 mm 1 m/S 758 mmHg 48%
    Mehr zeigen